User: anonymous   Login
Location: Unspecified
(0.0000°N, 0.0000°E)
Time: 01:45:54
(UTC+00:00)
Language:

AMOS 1 - Orbit

View from above orbital plane
View from above orbital plane
View from above satellite
View from above satellite

Ground track
Ground track

The orbit data is extracted from the following two-line orbital elements,

1 23865U 96030B   15146.53202369 -.00000057  00000-0  00000+0 0  9991
2 23865 005.7296 059.4825 0011150 083.6380 172.0791 00.97116728 69344
Epoch (UTC): 26 May 2015 12:46:06
Eccentricity: 0.0011150
inclination: 5.7296°
perigee height: 36646 km
apogee height: 36742 km
right ascension of ascending node: 59.4825°
argument of perigee: 83.6380°
revolutions per day: 0.97116728
mean anomaly at epoch: 172.0791°
orbit number at epoch: 6934

The dashed part of the orbit path shows where the satellite is in the earth's shadow,  

DLR